Hourly Data Report for October 17, 2017

All times are specified in Local Standard Time (LST). Add 1 hour to adjust for Daylight Saving Time where and when it is observed.

GRANBY
QUEBEC

45°22'22.000" N
72°46'26.000" W
86.00 m
7022802
MGB

Related Data

No related data is available for this station

Download Data

Hourly Data (October 2017)
Hourly Data Report for October 17, 2017
Temp Definition
°C
Dew Point Temp Definition
°C
Rel Hum Definition
%
Wind Dir Definition
10's deg

Wind Spd Definition
km/h
Visibility Definition
km
Stn Press Definition
kPa
Hmdx Definition


Wind Chill Definition


Weather Definition


TIME
00:00 1.0 -0.3 91 28 3   101.22     LegendNANA
01:00 -0.4 -0.9 96 21 1   101.22   -1 LegendNANA
02:00 -1.0 -1.3 98 21 1   101.23   -1 LegendNANA
03:00 -1.0 -1.2 99 23 2   101.28   -2 LegendNANA
04:00 -0.8 -1.0 99 22 1   101.32   -1 LegendNANA
05:00 -0.6 -0.8 99 17 3   101.35   -2 LegendNANA
06:00 -0.1 -0.5 97 19 4   101.35   -1 LegendNANA
07:00 1.0 0.4 96 21 3   101.37     LegendNANA
08:00 4.0 1.8 86 20 6   101.39     LegendNANA
09:00 5.7 1.5 74 19 8   101.36     LegendNANA
10:00 6.5 0.6 66 20 10   101.32     LegendNANA
11:00 8.0 1.2 62 19 10   101.20     LegendNANA
12:00 9.4 -0.4 50 17 14   101.06     LegendNANA
13:00 11.2 -0.6 44 18 13   100.91     LegendNANA
14:00 11.7 -1.9 39 20 11   100.81     LegendNANA
15:00 12.4 -2.6 35 20 11   100.75     LegendNANA
16:00 12.0 -0.7 42 20 8   100.65     LegendNANA
17:00 10.8 -0.1 47 18 6   100.58     LegendNANA
18:00 10.4 0.2 49 20 6   100.61     LegendNANA
19:00 10.2 0.0 49 20 9   100.64     LegendNANA
20:00 10.7 0.4 49 20 8   100.63     LegendNANA
21:00 11.2 0.7 49 20 11   100.64     LegendNANA
22:00 11.7 1.3 49 19 10   100.61     LegendNANA
23:00 11.5 2.0 52 20 9   100.58     LegendNANA

Notes on Data Quality.

Legend

  • E = Estimated
  • M = Missing
  • NA = Not Available
  • ‡ = Partner data that is not subject to review by the National Climate Archives
Date modified: